Year,Month,Day,Hour,Minute,Value (Times are PST for temperature in C)
2014,05,15,00,00,13.80
2014,05,15,00,01,13.80
2014,05,15,00,02,13.80
2014,05,15,00,03,13.80
2014,05,15,00,04,13.80
2014,05,15,00,05,13.80
2014,05,15,00,06,13.80
2014,05,15,00,07,13.80
2014,05,15,00,08,13.80
2014,05,15,00,09,13.80
2014,05,15,00,10,13.80
2014,05,15,00,11,13.80
2014,05,15,00,12,13.70
2014,05,15,00,13,13.70
2014,05,15,00,14,13.70
2014,05,15,00,15,13.70
2014,05,15,00,16,13.70
2014,05,15,00,17,13.70
2014,05,15,00,18,13.70
2014,05,15,00,19,13.70
2014,05,15,00,20,13.70
2014,05,15,00,21,13.60
2014,05,15,00,22,13.60
2014,05,15,00,23,13.60
2014,05,15,00,24,13.60
2014,05,15,00,25,13.60
2014,05,15,00,26,13.60
2014,05,15,00,27,13.50
2014,05,15,00,28,13.50
2014,05,15,00,29,13.50
2014,05,15,00,30,13.40
2014,05,15,00,31,13.40
2014,05,15,00,32,13.40
2014,05,15,00,33,13.40
2014,05,15,00,34,13.40
2014,05,15,00,35,13.40
2014,05,15,00,36,13.40
2014,05,15,00,37,13.40
2014,05,15,00,38,13.30
2014,05,15,00,39,13.30
2014,05,15,00,40,13.30
2014,05,15,00,41,13.30
2014,05,15,00,42,13.30
2014,05,15,00,43,13.30
2014,05,15,00,44,13.30
2014,05,15,00,45,13.30
2014,05,15,00,46,13.30
2014,05,15,00,47,13.30
2014,05,15,00,48,13.30
2014,05,15,00,49,13.30
2014,05,15,00,50,13.30
2014,05,15,00,51,13.30
2014,05,15,00,52,13.30
2014,05,15,00,53,13.30
2014,05,15,00,54,13.30
2014,05,15,00,55,13.30
2014,05,15,00,56,13.30
2014,05,15,00,57,13.30
2014,05,15,00,58,13.30
2014,05,15,00,59,13.30
2014,05,15,01,00,13.30
2014,05,15,01,01,13.30
2014,05,15,01,02,13.30
2014,05,15,01,03,13.30
2014,05,15,01,04,13.30
2014,05,15,01,05,13.30
2014,05,15,01,06,13.30
2014,05,15,01,07,13.20
2014,05,15,01,08,13.20
2014,05,15,01,09,13.20
2014,05,15,01,10,13.20
2014,05,15,01,11,13.20
2014,05,15,01,12,13.20
2014,05,15,01,13,13.20
2014,05,15,01,14,13.10
2014,05,15,01,15,13.10
2014,05,15,01,16,13.10
2014,05,15,01,17,13.10
2014,05,15,01,18,13.10
2014,05,15,01,19,13.10
2014,05,15,01,20,13.10
2014,05,15,01,21,13.10
2014,05,15,01,22,13.10
2014,05,15,01,23,13.10
2014,05,15,01,24,13.10
2014,05,15,01,25,13.10
2014,05,15,01,26,13.00
2014,05,15,01,27,13.10
2014,05,15,01,28,13.00
2014,05,15,01,29,13.00
2014,05,15,01,30,13.00
2014,05,15,01,31,13.00
2014,05,15,01,32,13.00
2014,05,15,01,33,13.10
2014,05,15,01,34,13.00
2014,05,15,01,35,13.00
2014,05,15,01,36,13.00
2014,05,15,01,37,13.00
2014,05,15,01,38,13.00
2014,05,15,01,39,13.00
2014,05,15,01,40,13.00
2014,05,15,01,41,13.00
2014,05,15,01,42,13.00
2014,05,15,01,43,13.00
2014,05,15,01,44,13.00
2014,05,15,01,45,13.00
2014,05,15,01,46,13.00
2014,05,15,01,47,12.90
2014,05,15,01,48,12.90
2014,05,15,01,49,12.90
2014,05,15,01,50,12.90
2014,05,15,01,51,12.90
2014,05,15,01,52,12.90
2014,05,15,01,53,12.90
2014,05,15,01,54,12.90
2014,05,15,01,55,12.80
2014,05,15,01,56,12.80
2014,05,15,01,57,12.80
2014,05,15,01,58,12.80
2014,05,15,01,59,12.80
2014,05,15,02,00,12.80
2014,05,15,02,01,12.80
2014,05,15,02,02,12.70
2014,05,15,02,03,12.70
2014,05,15,02,04,12.70
2014,05,15,02,05,12.70
2014,05,15,02,06,12.70
2014,05,15,02,07,12.70
2014,05,15,02,08,12.70
2014,05,15,02,09,12.70
2014,05,15,02,10,12.70
2014,05,15,02,11,12.70
2014,05,15,02,12,12.70
2014,05,15,02,13,12.70
2014,05,15,02,14,12.60
2014,05,15,02,15,12.60
2014,05,15,02,16,12.60
2014,05,15,02,17,12.60
2014,05,15,02,18,12.60
2014,05,15,02,19,12.60
2014,05,15,02,20,12.60
2014,05,15,02,21,12.60
2014,05,15,02,22,12.60
2014,05,15,02,23,12.60
2014,05,15,02,24,12.60
2014,05,15,02,25,12.60
2014,05,15,02,26,12.70
2014,05,15,02,27,12.70
2014,05,15,02,28,12.70
2014,05,15,02,29,12.70
2014,05,15,02,30,12.70
2014,05,15,02,31,12.70
2014,05,15,02,32,12.70
2014,05,15,02,33,12.70
2014,05,15,02,34,12.70
2014,05,15,02,35,12.70
2014,05,15,02,36,12.70
2014,05,15,02,37,12.60
2014,05,15,02,38,12.60
2014,05,15,02,39,12.60
2014,05,15,02,40,12.60
2014,05,15,02,41,12.60
2014,05,15,02,42,12.60
2014,05,15,02,43,12.60
2014,05,15,02,44,12.60
2014,05,15,02,45,12.60
2014,05,15,02,46,12.60
2014,05,15,02,47,12.60
2014,05,15,02,48,12.60
2014,05,15,02,49,12.60
2014,05,15,02,50,12.60
2014,05,15,02,51,12.60
2014,05,15,02,52,12.60
2014,05,15,02,53,12.60
2014,05,15,02,54,12.60
2014,05,15,02,55,12.60
2014,05,15,02,56,12.50
2014,05,15,02,57,12.50
2014,05,15,02,58,12.50
2014,05,15,02,59,12.50
2014,05,15,03,00,12.50
2014,05,15,03,01,12.50
2014,05,15,03,02,12.50
2014,05,15,03,03,12.50
2014,05,15,03,04,12.40
2014,05,15,03,05,12.40
2014,05,15,03,06,12.40
2014,05,15,03,07,12.40
2014,05,15,03,08,12.40
2014,05,15,03,09,12.40
2014,05,15,03,10,12.40
2014,05,15,03,11,12.30
2014,05,15,03,12,12.30
2014,05,15,03,13,12.30
2014,05,15,03,14,12.30
2014,05,15,03,15,12.30
2014,05,15,03,16,12.30
2014,05,15,03,17,12.30
2014,05,15,03,18,12.30
2014,05,15,03,19,12.30
2014,05,15,03,20,12.20
2014,05,15,03,21,12.20
2014,05,15,03,22,12.20
2014,05,15,03,23,12.20
2014,05,15,03,24,12.20
2014,05,15,03,25,12.20
2014,05,15,03,26,12.20
2014,05,15,03,27,12.20
2014,05,15,03,28,12.10
2014,05,15,03,29,12.10
2014,05,15,03,30,12.10
2014,05,15,03,31,12.10
2014,05,15,03,32,12.10
2014,05,15,03,33,12.10
2014,05,15,03,34,12.10
2014,05,15,03,35,12.10
2014,05,15,03,36,12.10
2014,05,15,03,37,12.10
2014,05,15,03,38,12.10
2014,05,15,03,39,12.10
2014,05,15,03,40,12.10
2014,05,15,03,41,12.10
2014,05,15,03,42,12.10
2014,05,15,03,43,12.10
2014,05,15,03,44,12.10
2014,05,15,03,45,12.10
2014,05,15,03,46,12.00
2014,05,15,03,47,12.00
2014,05,15,03,48,12.00
2014,05,15,03,49,12.00
2014,05,15,03,50,12.00
2014,05,15,03,51,12.00
2014,05,15,03,52,12.00
2014,05,15,03,53,12.00
2014,05,15,03,54,12.00
2014,05,15,03,55,12.00
2014,05,15,03,56,12.00
2014,05,15,03,57,12.00
2014,05,15,03,58,11.90
2014,05,15,03,59,11.90
2014,05,15,04,00,11.90
2014,05,15,04,01,11.90
2014,05,15,04,02,11.90
2014,05,15,04,03,11.90
2014,05,15,04,04,11.90
2014,05,15,04,05,11.90
2014,05,15,04,06,11.80
2014,05,15,04,07,11.80
2014,05,15,04,08,11.80
2014,05,15,04,09,11.80
2014,05,15,04,10,11.80
2014,05,15,04,11,11.80
2014,05,15,04,12,11.80
2014,05,15,04,13,11.80
2014,05,15,04,14,11.70
2014,05,15,04,15,11.70
2014,05,15,04,16,11.70
2014,05,15,04,17,11.70
2014,05,15,04,18,11.70
2014,05,15,04,19,11.70
2014,05,15,04,20,11.70
2014,05,15,04,21,11.70
2014,05,15,04,22,11.70
2014,05,15,04,23,11.70
2014,05,15,04,24,11.70
2014,05,15,04,25,11.70
2014,05,15,04,26,11.70
2014,05,15,04,27,11.70
2014,05,15,04,28,11.70
2014,05,15,04,29,11.70
2014,05,15,04,30,11.80
2014,05,15,04,31,11.80
2014,05,15,04,32,11.80
2014,05,15,04,33,11.80
2014,05,15,04,34,11.80
2014,05,15,04,35,11.80
2014,05,15,04,36,11.80
2014,05,15,04,37,11.80
2014,05,15,04,38,11.80
2014,05,15,04,39,11.80
2014,05,15,04,40,11.80
2014,05,15,04,41,11.80
2014,05,15,04,42,11.80
2014,05,15,04,43,11.80
2014,05,15,04,44,11.80
2014,05,15,04,45,11.90
2014,05,15,04,46,11.90
2014,05,15,04,47,11.90
2014,05,15,04,48,11.90
2014,05,15,04,49,11.80
2014,05,15,04,50,11.80
2014,05,15,04,51,11.80
2014,05,15,04,52,11.80
2014,05,15,04,53,11.80
2014,05,15,04,54,11.80
2014,05,15,04,55,11.80
2014,05,15,04,56,11.80
2014,05,15,04,57,11.80
2014,05,15,04,58,11.80
2014,05,15,04,59,11.80
2014,05,15,05,00,11.80
2014,05,15,05,01,11.70
2014,05,15,05,02,11.70
2014,05,15,05,03,11.70
2014,05,15,05,04,11.70
2014,05,15,05,05,11.70
2014,05,15,05,06,11.70
2014,05,15,05,07,11.70
2014,05,15,05,08,11.70
2014,05,15,05,09,11.70
2014,05,15,05,10,11.70
2014,05,15,05,11,11.70
2014,05,15,05,12,11.70
2014,05,15,05,13,11.70
2014,05,15,05,14,11.70
2014,05,15,05,15,11.70
2014,05,15,05,16,11.70
2014,05,15,05,17,11.70
2014,05,15,05,18,11.70
2014,05,15,05,19,11.70
2014,05,15,05,20,11.70
2014,05,15,05,21,11.70
2014,05,15,05,22,11.70
2014,05,15,05,23,11.70
2014,05,15,05,24,11.70
2014,05,15,05,25,11.80
2014,05,15,05,26,11.80
2014,05,15,05,27,11.80
2014,05,15,05,28,11.80
2014,05,15,05,29,11.80
2014,05,15,05,30,11.80
2014,05,15,05,31,11.80
2014,05,15,05,32,11.80
2014,05,15,05,33,11.80
2014,05,15,05,34,11.80
2014,05,15,05,35,11.90
2014,05,15,05,36,11.80
2014,05,15,05,37,11.80
2014,05,15,05,38,11.80
2014,05,15,05,39,11.80
2014,05,15,05,40,11.80
2014,05,15,05,41,11.80
2014,05,15,05,42,11.80
2014,05,15,05,43,11.80
2014,05,15,05,44,11.80
2014,05,15,05,45,11.80
2014,05,15,05,46,11.80
2014,05,15,05,47,11.80
2014,05,15,05,48,11.70
2014,05,15,05,49,11.70
2014,05,15,05,50,11.70
2014,05,15,05,51,11.70
2014,05,15,05,52,11.70
2014,05,15,05,53,11.70
2014,05,15,05,54,11.70
2014,05,15,05,55,11.70
2014,05,15,05,56,11.70
2014,05,15,05,57,11.70
2014,05,15,05,58,11.70
2014,05,15,05,59,11.80
2014,05,15,06,00,11.80
2014,05,15,06,01,11.80
2014,05,15,06,02,11.80
2014,05,15,06,03,11.80
2014,05,15,06,04,11.80
2014,05,15,06,05,11.80
2014,05,15,06,06,11.80
2014,05,15,06,07,11.80
2014,05,15,06,08,11.80
2014,05,15,06,09,11.80
2014,05,15,06,10,11.80
2014,05,15,06,11,11.80
2014,05,15,06,12,11.80
2014,05,15,06,13,11.80
2014,05,15,06,14,11.80
2014,05,15,06,15,11.80
2014,05,15,06,16,11.80
2014,05,15,06,17,11.90
2014,05,15,06,18,11.90
2014,05,15,06,19,11.90
2014,05,15,06,20,11.90
2014,05,15,06,21,12.00
2014,05,15,06,22,12.00
2014,05,15,06,23,12.00
2014,05,15,06,24,12.10
2014,05,15,06,25,12.10
2014,05,15,06,26,12.10
2014,05,15,06,27,12.10
2014,05,15,06,28,12.10
2014,05,15,06,29,12.20
2014,05,15,06,30,12.20
2014,05,15,06,31,12.20
2014,05,15,06,32,12.20
2014,05,15,06,33,12.30
2014,05,15,06,34,12.30
2014,05,15,06,35,12.30
2014,05,15,06,36,12.40
2014,05,15,06,37,12.40
2014,05,15,06,38,12.50
2014,05,15,06,39,12.60
2014,05,15,06,40,12.60
2014,05,15,06,41,12.70
2014,05,15,06,42,12.70
2014,05,15,06,43,12.80
2014,05,15,06,44,12.80
2014,05,15,06,45,12.90
2014,05,15,06,46,12.90
2014,05,15,06,47,12.90
2014,05,15,06,48,12.90
2014,05,15,06,49,13.00
2014,05,15,06,50,13.00
2014,05,15,06,51,13.00
2014,05,15,06,52,13.00
2014,05,15,06,53,13.10
2014,05,15,06,54,13.10
2014,05,15,06,55,13.10
2014,05,15,06,56,13.20
2014,05,15,06,57,13.20
2014,05,15,06,58,13.30
2014,05,15,06,59,13.30
2014,05,15,07,00,13.40
2014,05,15,07,01,13.40
2014,05,15,07,02,13.50
2014,05,15,07,03,13.60
2014,05,15,07,04,13.70
2014,05,15,07,05,13.80
2014,05,15,07,06,13.90
2014,05,15,07,07,14.00
2014,05,15,07,08,14.10
2014,05,15,07,09,14.20
2014,05,15,07,10,14.20
2014,05,15,07,11,14.30
2014,05,15,07,12,14.40
2014,05,15,07,13,14.50
2014,05,15,07,14,14.60
2014,05,15,07,15,14.70
2014,05,15,07,16,14.80
2014,05,15,07,17,14.90
2014,05,15,07,18,15.00
2014,05,15,07,19,15.00
2014,05,15,07,20,15.10
2014,05,15,07,21,15.10
2014,05,15,07,22,15.20
2014,05,15,07,23,15.30
2014,05,15,07,24,15.30
2014,05,15,07,25,15.30
2014,05,15,07,26,15.40
2014,05,15,07,27,15.40
2014,05,15,07,28,15.50
2014,05,15,07,29,15.50
2014,05,15,07,30,15.50
2014,05,15,07,31,15.50
2014,05,15,07,32,15.50
2014,05,15,07,33,15.50
2014,05,15,07,34,15.50
2014,05,15,07,35,15.60
2014,05,15,07,36,15.60
2014,05,15,07,37,15.60
2014,05,15,07,38,15.60
2014,05,15,07,39,15.60
2014,05,15,07,40,15.60
2014,05,15,07,41,15.60
2014,05,15,07,42,15.60
2014,05,15,07,43,15.70
2014,05,15,07,44,15.70
2014,05,15,07,45,15.70
2014,05,15,07,46,15.80
2014,05,15,07,47,15.80
2014,05,15,07,48,15.90
2014,05,15,07,49,15.90
2014,05,15,07,50,16.00
2014,05,15,07,51,16.00
2014,05,15,07,52,16.10
2014,05,15,07,53,16.10
2014,05,15,07,54,16.10
2014,05,15,07,55,16.20
2014,05,15,07,56,16.20
2014,05,15,07,57,16.20
2014,05,15,07,58,16.20
2014,05,15,07,59,16.20
2014,05,15,08,00,16.30
2014,05,15,08,01,16.30
2014,05,15,08,02,16.30
2014,05,15,08,03,16.40
2014,05,15,08,04,16.40
2014,05,15,08,05,16.40
2014,05,15,08,06,16.40
2014,05,15,08,07,16.40
2014,05,15,08,08,16.40
2014,05,15,08,09,16.40
2014,05,15,08,10,16.40
2014,05,15,08,11,16.50
2014,05,15,08,12,16.50
2014,05,15,08,13,16.50
2014,05,15,08,14,16.60
2014,05,15,08,15,16.60
2014,05,15,08,16,16.60
2014,05,15,08,17,16.70
2014,05,15,08,18,16.70
2014,05,15,08,19,16.70
2014,05,15,08,20,16.80
2014,05,15,08,21,16.80
2014,05,15,08,22,16.80
2014,05,15,08,23,16.80
2014,05,15,08,24,16.80
2014,05,15,08,25,16.80
2014,05,15,08,26,16.80
2014,05,15,08,27,16.80
2014,05,15,08,28,16.80
2014,05,15,08,29,16.80
2014,05,15,08,30,16.80
2014,05,15,08,31,16.80
2014,05,15,08,32,16.80
2014,05,15,08,33,16.80
2014,05,15,08,34,16.80
2014,05,15,08,35,16.80
2014,05,15,08,36,16.90
2014,05,15,08,37,17.00
2014,05,15,08,38,17.00
2014,05,15,08,39,17.10
2014,05,15,08,40,17.20
2014,05,15,08,41,17.20
2014,05,15,08,42,17.30
2014,05,15,08,43,17.30
2014,05,15,08,44,17.30
2014,05,15,08,45,17.30
2014,05,15,08,46,17.30
2014,05,15,08,47,17.30
2014,05,15,08,48,17.30
2014,05,15,08,49,17.30
2014,05,15,08,50,17.40
2014,05,15,08,51,17.40
2014,05,15,08,52,17.40
2014,05,15,08,53,17.50
2014,05,15,08,54,17.50
2014,05,15,08,55,17.50
2014,05,15,08,56,17.50
2014,05,15,08,57,17.50
2014,05,15,08,58,17.60
2014,05,15,08,59,17.60
2014,05,15,09,00,17.60
2014,05,15,09,01,17.70
2014,05,15,09,02,17.70
2014,05,15,09,03,17.80
2014,05,15,09,04,17.90
2014,05,15,09,05,17.90
2014,05,15,09,06,18.00
2014,05,15,09,07,18.10
2014,05,15,09,08,18.20
2014,05,15,09,09,18.20
2014,05,15,09,10,18.30
2014,05,15,09,11,18.30
2014,05,15,09,12,18.40
2014,05,15,09,13,18.40
2014,05,15,09,14,18.50
2014,05,15,09,15,18.60
2014,05,15,09,16,18.70
2014,05,15,09,17,18.80
2014,05,15,09,18,18.90
2014,05,15,09,19,19.00
2014,05,15,09,20,19.10
2014,05,15,09,21,19.20
2014,05,15,09,22,19.30
2014,05,15,09,23,19.40
2014,05,15,09,24,19.40
2014,05,15,09,25,19.40
2014,05,15,09,26,19.40
2014,05,15,09,27,19.50
2014,05,15,09,28,19.50
2014,05,15,09,29,19.60
2014,05,15,09,30,19.60
2014,05,15,09,31,19.60
2014,05,15,09,32,19.60
2014,05,15,09,33,19.60
2014,05,15,09,34,19.60
2014,05,15,09,35,19.60
2014,05,15,09,36,19.60
2014,05,15,09,37,19.60
2014,05,15,09,38,19.60
2014,05,15,09,39,19.60
2014,05,15,09,40,19.60
2014,05,15,09,41,19.60
2014,05,15,09,42,19.60
2014,05,15,09,43,19.60
2014,05,15,09,44,19.60
2014,05,15,09,45,19.60
2014,05,15,09,46,19.60
2014,05,15,09,47,19.50
2014,05,15,09,48,19.60
2014,05,15,09,49,19.60
2014,05,15,09,50,19.70
2014,05,15,09,51,19.80
2014,05,15,09,52,19.80
2014,05,15,09,53,19.90
2014,05,15,09,54,20.00
2014,05,15,09,55,20.00
2014,05,15,09,56,20.10
2014,05,15,09,57,20.10
2014,05,15,09,58,20.20
2014,05,15,09,59,20.30
2014,05,15,10,00,20.30
2014,05,15,10,01,20.40
2014,05,15,10,02,20.40
2014,05,15,10,03,20.50
2014,05,15,10,04,20.60
2014,05,15,10,05,20.60
2014,05,15,10,06,20.60
2014,05,15,10,07,20.60
2014,05,15,10,08,20.60
2014,05,15,10,09,20.60
2014,05,15,10,10,20.50
2014,05,15,10,11,20.50
2014,05,15,10,12,20.40
2014,05,15,10,13,20.40
2014,05,15,10,14,20.50
2014,05,15,10,15,20.50
2014,05,15,10,16,20.60
2014,05,15,10,17,20.70
2014,05,15,10,18,20.70
2014,05,15,10,19,20.70
2014,05,15,10,20,20.70
2014,05,15,10,21,20.70
2014,05,15,10,22,20.70
2014,05,15,10,23,20.60
2014,05,15,10,24,20.60
2014,05,15,10,25,20.60
2014,05,15,10,26,20.70
2014,05,15,10,27,20.70
2014,05,15,10,28,20.70
2014,05,15,10,29,20.60
2014,05,15,10,30,20.60
2014,05,15,10,31,20.50
2014,05,15,10,32,20.40
2014,05,15,10,33,20.50
2014,05,15,10,34,20.50
2014,05,15,10,35,20.40
2014,05,15,10,36,20.40
2014,05,15,10,37,20.30
2014,05,15,10,38,20.30
2014,05,15,10,39,20.20
2014,05,15,10,40,20.20
2014,05,15,10,41,20.20
2014,05,15,10,42,20.20
2014,05,15,10,43,20.20
2014,05,15,10,44,20.20
2014,05,15,10,45,20.20
2014,05,15,10,46,20.20
2014,05,15,10,47,20.10
2014,05,15,10,48,20.00
2014,05,15,10,49,19.90
2014,05,15,10,50,19.80
2014,05,15,10,51,19.70
2014,05,15,10,52,19.60
2014,05,15,10,53,19.60
2014,05,15,10,54,19.50
2014,05,15,10,55,19.50
2014,05,15,10,56,19.40
2014,05,15,10,57,19.40
2014,05,15,10,58,19.50
2014,05,15,10,59,19.50
2014,05,15,11,00,19.60
2014,05,15,11,01,19.70
2014,05,15,11,02,19.70
2014,05,15,11,03,19.70
2014,05,15,11,04,19.70
2014,05,15,11,05,19.70
2014,05,15,11,06,19.70
2014,05,15,11,07,19.70
2014,05,15,11,08,19.70
2014,05,15,11,09,19.70
2014,05,15,11,10,19.70
2014,05,15,11,11,19.80
2014,05,15,11,12,19.90
2014,05,15,11,13,19.90
2014,05,15,11,14,20.00
2014,05,15,11,15,20.10
2014,05,15,11,16,20.10
2014,05,15,11,17,20.20
2014,05,15,11,18,20.30
2014,05,15,11,19,20.40
2014,05,15,11,20,20.40
2014,05,15,11,21,20.40
2014,05,15,11,22,20.40
2014,05,15,11,23,20.50
2014,05,15,11,24,20.50
2014,05,15,11,25,20.50
2014,05,15,11,26,20.60
2014,05,15,11,27,20.70
2014,05,15,11,28,20.80
2014,05,15,11,29,20.80
2014,05,15,11,30,20.90
2014,05,15,11,31,20.90
2014,05,15,11,32,20.90
2014,05,15,11,33,20.90
2014,05,15,11,34,20.90
2014,05,15,11,35,21.00
2014,05,15,11,36,21.00
2014,05,15,11,37,21.10
2014,05,15,11,38,21.10
2014,05,15,11,39,21.10
2014,05,15,11,40,21.10
2014,05,15,11,41,21.20
2014,05,15,11,42,21.20
2014,05,15,11,43,21.30
2014,05,15,11,44,21.30
2014,05,15,11,45,21.40
2014,05,15,11,46,21.50
2014,05,15,11,47,21.70
2014,05,15,11,48,21.70
2014,05,15,11,49,21.60
2014,05,15,11,50,21.60
2014,05,15,11,51,21.60
2014,05,15,11,52,21.60
2014,05,15,11,53,21.60
2014,05,15,11,54,21.60
2014,05,15,11,55,21.60
2014,05,15,11,56,21.60
2014,05,15,11,57,21.60
2014,05,15,11,58,21.60
2014,05,15,11,59,21.60
2014,05,15,12,00,21.60
2014,05,15,12,01,21.50
2014,05,15,12,02,21.40
2014,05,15,12,03,21.30
2014,05,15,12,04,21.20
2014,05,15,12,05,21.20
2014,05,15,12,06,21.20
2014,05,15,12,07,21.20
2014,05,15,12,08,21.20
2014,05,15,12,09,21.10
2014,05,15,12,10,21.10
2014,05,15,12,11,21.00
2014,05,15,12,12,21.00
2014,05,15,12,13,20.90
2014,05,15,12,14,20.90
2014,05,15,12,15,20.80
2014,05,15,12,16,20.80
2014,05,15,12,17,20.70
2014,05,15,12,18,20.70
2014,05,15,12,19,20.60
2014,05,15,12,20,20.50
2014,05,15,12,21,20.50
2014,05,15,12,22,20.40
2014,05,15,12,23,20.40
2014,05,15,12,24,20.30
2014,05,15,12,25,20.30
2014,05,15,12,26,20.20
2014,05,15,12,27,20.20
2014,05,15,12,28,20.20
2014,05,15,12,29,20.20
2014,05,15,12,30,20.20
2014,05,15,12,31,20.30
2014,05,15,12,32,20.30
2014,05,15,12,33,20.30
2014,05,15,12,34,20.30
2014,05,15,12,35,20.30
2014,05,15,12,36,20.40
2014,05,15,12,37,20.50
2014,05,15,12,38,20.50
2014,05,15,12,39,20.50
2014,05,15,12,40,20.50
2014,05,15,12,41,20.50
2014,05,15,12,42,20.60
2014,05,15,12,43,20.60
2014,05,15,12,44,20.60
2014,05,15,12,45,20.70
2014,05,15,12,46,20.70
2014,05,15,12,47,20.70
2014,05,15,12,48,20.70
2014,05,15,12,49,20.70
2014,05,15,12,50,20.80
2014,05,15,12,51,20.80
2014,05,15,12,52,20.80
2014,05,15,12,53,20.80
2014,05,15,12,54,20.80
2014,05,15,12,55,20.80
2014,05,15,12,56,20.90
2014,05,15,12,57,20.90
2014,05,15,12,58,21.00
2014,05,15,12,59,21.00
2014,05,15,13,00,21.10
2014,05,15,13,01,21.10
2014,05,15,13,02,21.10
2014,05,15,13,03,21.10
2014,05,15,13,04,21.20
2014,05,15,13,05,21.20
2014,05,15,13,06,21.20
2014,05,15,13,07,21.10
2014,05,15,13,08,21.00
2014,05,15,13,09,20.90
2014,05,15,13,10,20.80
2014,05,15,13,11,20.70
2014,05,15,13,12,20.70
2014,05,15,13,13,20.70
2014,05,15,13,14,20.70
2014,05,15,13,15,20.70
2014,05,15,13,16,20.80
2014,05,15,13,17,20.80
2014,05,15,13,18,20.70
2014,05,15,13,19,20.70
2014,05,15,13,20,20.70
2014,05,15,13,21,20.70
2014,05,15,13,22,20.60
2014,05,15,13,23,20.60
2014,05,15,13,24,20.60
2014,05,15,13,25,20.70
2014,05,15,13,26,20.70
2014,05,15,13,27,20.70
2014,05,15,13,28,20.80
2014,05,15,13,29,20.90
2014,05,15,13,30,20.90
2014,05,15,13,31,21.00
2014,05,15,13,32,21.00
2014,05,15,13,33,21.00
2014,05,15,13,34,21.10
2014,05,15,13,35,21.10
2014,05,15,13,36,21.00
2014,05,15,13,37,21.00
2014,05,15,13,38,21.00
2014,05,15,13,39,21.00
2014,05,15,13,40,21.00
2014,05,15,13,41,21.00
2014,05,15,13,42,21.00
2014,05,15,13,43,21.00
2014,05,15,13,44,21.00
2014,05,15,13,45,20.90
2014,05,15,13,46,20.90
2014,05,15,13,47,20.90
2014,05,15,13,48,20.90
2014,05,15,13,49,20.90
2014,05,15,13,50,20.90
2014,05,15,13,51,20.90
2014,05,15,13,52,20.90
2014,05,15,13,53,20.90
2014,05,15,13,54,21.00
2014,05,15,13,55,21.00
2014,05,15,13,56,21.00
2014,05,15,13,57,21.00
2014,05,15,13,58,21.00
2014,05,15,13,59,21.10
2014,05,15,14,00,21.10
2014,05,15,14,01,21.10
2014,05,15,14,02,21.10
2014,05,15,14,03,21.20
2014,05,15,14,04,21.20
2014,05,15,14,05,21.20
2014,05,15,14,06,21.30
2014,05,15,14,07,21.30
2014,05,15,14,08,21.30
2014,05,15,14,09,21.40
2014,05,15,14,10,21.50
2014,05,15,14,11,21.50
2014,05,15,14,12,21.50
2014,05,15,14,13,21.60
2014,05,15,14,14,21.60
2014,05,15,14,15,21.60
2014,05,15,14,16,21.50
2014,05,15,14,17,21.50
2014,05,15,14,18,21.50
2014,05,15,14,19,21.50
2014,05,15,14,20,21.50
2014,05,15,14,21,21.40
2014,05,15,14,22,21.40
2014,05,15,14,23,21.50
2014,05,15,14,24,21.50
2014,05,15,14,25,21.50
2014,05,15,14,26,21.40
2014,05,15,14,27,21.40
2014,05,15,14,28,21.40
2014,05,15,14,29,21.30
2014,05,15,14,30,21.20
2014,05,15,14,31,21.20
2014,05,15,14,32,21.10
2014,05,15,14,33,21.10
2014,05,15,14,34,21.00
2014,05,15,14,35,21.00
2014,05,15,14,36,20.90
2014,05,15,14,37,20.80
2014,05,15,14,38,20.70
2014,05,15,14,39,20.70
2014,05,15,14,40,20.60
2014,05,15,14,41,20.60
2014,05,15,14,42,20.50
2014,05,15,14,43,20.50
2014,05,15,14,44,20.40
2014,05,15,14,45,20.40
2014,05,15,14,46,20.40
2014,05,15,14,47,20.40
2014,05,15,14,48,20.40
2014,05,15,14,49,20.40
2014,05,15,14,50,20.40
2014,05,15,14,51,20.40
2014,05,15,14,52,20.40
2014,05,15,14,53,20.40
2014,05,15,14,54,20.40
2014,05,15,14,55,20.40
2014,05,15,14,56,20.50
2014,05,15,14,57,20.50
2014,05,15,14,58,20.60
2014,05,15,14,59,20.60
2014,05,15,15,00,20.60
2014,05,15,15,01,20.70
2014,05,15,15,02,20.70
2014,05,15,15,03,20.70
2014,05,15,15,04,20.70
2014,05,15,15,05,20.70
2014,05,15,15,06,20.70
2014,05,15,15,07,20.70
2014,05,15,15,08,20.70
2014,05,15,15,09,20.70
2014,05,15,15,10,20.70
2014,05,15,15,11,20.70
2014,05,15,15,12,20.70
2014,05,15,15,13,20.70
2014,05,15,15,14,20.70
2014,05,15,15,15,20.70
2014,05,15,15,16,20.60
2014,05,15,15,17,20.60
2014,05,15,15,18,20.60
2014,05,15,15,19,20.60
2014,05,15,15,20,20.60
2014,05,15,15,21,20.70
2014,05,15,15,22,20.70
2014,05,15,15,23,20.70
2014,05,15,15,24,20.70
2014,05,15,15,25,20.80
2014,05,15,15,26,20.90
2014,05,15,15,27,21.00
2014,05,15,15,28,21.00
2014,05,15,15,29,21.10
2014,05,15,15,30,21.10
2014,05,15,15,31,21.20
2014,05,15,15,32,21.20
2014,05,15,15,33,21.30
2014,05,15,15,34,21.30
2014,05,15,15,35,21.40
2014,05,15,15,36,21.50
2014,05,15,15,37,21.60
2014,05,15,15,38,21.70
2014,05,15,15,39,21.80
2014,05,15,15,40,22.00
2014,05,15,15,41,22.00
2014,05,15,15,42,22.00
2014,05,15,15,43,22.00
2014,05,15,15,44,22.00
2014,05,15,15,45,22.00
2014,05,15,15,46,22.10
2014,05,15,15,47,22.10
2014,05,15,15,48,22.10
2014,05,15,15,49,22.20
2014,05,15,15,50,22.20
2014,05,15,15,51,22.20
2014,05,15,15,52,22.30
2014,05,15,15,53,22.30
2014,05,15,15,54,22.30
2014,05,15,15,55,22.30
2014,05,15,15,56,22.40
2014,05,15,15,57,22.40
2014,05,15,15,58,22.40
2014,05,15,15,59,22.30
2014,05,15,16,00,22.30
2014,05,15,16,01,22.20
2014,05,15,16,02,22.10
2014,05,15,16,03,22.00
2014,05,15,16,04,21.90
2014,05,15,16,05,21.90
2014,05,15,16,06,21.80
2014,05,15,16,07,21.70
2014,05,15,16,08,21.60
2014,05,15,16,09,21.50
2014,05,15,16,10,21.30
2014,05,15,16,11,21.20
2014,05,15,16,12,21.00
2014,05,15,16,13,20.90
2014,05,15,16,14,20.90
2014,05,15,16,15,20.80
2014,05,15,16,16,20.80
2014,05,15,16,17,20.80
2014,05,15,16,18,20.70
2014,05,15,16,19,20.60
2014,05,15,16,20,20.60
2014,05,15,16,21,20.50
2014,05,15,16,22,20.50
2014,05,15,16,23,20.40
2014,05,15,16,24,20.40
2014,05,15,16,25,20.30
2014,05,15,16,26,20.30
2014,05,15,16,27,20.30
2014,05,15,16,28,20.30
2014,05,15,16,29,20.30
2014,05,15,16,30,20.20
2014,05,15,16,31,20.20
2014,05,15,16,32,20.20
2014,05,15,16,33,20.10
2014,05,15,16,34,20.10
2014,05,15,16,35,20.10
2014,05,15,16,36,20.10
2014,05,15,16,37,20.10
2014,05,15,16,38,20.10
2014,05,15,16,39,20.10
2014,05,15,16,40,20.00
2014,05,15,16,41,20.00
2014,05,15,16,42,19.90
2014,05,15,16,43,19.80
2014,05,15,16,44,19.70
2014,05,15,16,45,19.60
2014,05,15,16,46,19.50
2014,05,15,16,47,19.30
2014,05,15,16,48,19.20
2014,05,15,16,49,19.00
2014,05,15,16,50,18.90
2014,05,15,16,51,18.80
2014,05,15,16,52,18.70
2014,05,15,16,53,18.50
2014,05,15,16,54,18.30
2014,05,15,16,55,18.20
2014,05,15,16,56,18.10
2014,05,15,16,57,18.10
2014,05,15,16,58,18.00
2014,05,15,16,59,18.00
2014,05,15,17,00,17.90
2014,05,15,17,01,17.90
2014,05,15,17,02,17.90
2014,05,15,17,03,18.00
2014,05,15,17,04,18.00
2014,05,15,17,05,18.10
2014,05,15,17,06,18.20
2014,05,15,17,07,18.30
2014,05,15,17,08,18.30
2014,05,15,17,09,18.50
2014,05,15,17,10,18.60
2014,05,15,17,11,18.60
2014,05,15,17,12,18.70
2014,05,15,17,13,18.80
2014,05,15,17,14,18.80
2014,05,15,17,15,18.90
2014,05,15,17,16,19.00
2014,05,15,17,17,19.10
2014,05,15,17,18,19.20
2014,05,15,17,19,19.30